KB5SJ Weather Reports


time (UTC)temp
C
wind
direction
speed
KPH
gust
KPH
rain 1hr
cm
rain 24hr
cm
rain mn
cm
humidity
%
barometer
mb
20260509223516 32 45 1.6 4.8 0.00 0.18 0.00 72 1006.9
20260509222516 32 0.0 3.2 0.00 0.18 0.00 72 1006.7
20260509221536 32 45 1.6 3.2 0.00 0.18 0.00 71 1006.8
20260509220516 31 68 1.6 4.8 0.00 0.18 0.00 75 1006.9
20260509215536 31 68 3.2 4.8 0.00 0.18 0.00 76 1006.8
20260509214536 31 0.0 1.6 0.00 0.18 0.00 79 1006.9
20260509213516 31 0.0 1.6 0.00 0.18 0.00 75 1006.8
20260509212516 31 203 1.6 3.2 0.00 0.18 0.00 76 1006.8
20260509211516 30 203 1.6 3.2 0.00 0.18 0.00 76 1006.9
20260509210536 30 203 1.6 4.8 0.00 0.18 0.00 76 1007.1
20260509205516 30 68 1.6 3.2 0.00 0.18 0.00 76 1007.2
20260509204516 31 0 1.6 6.4 0.00 0.18 0.00 79 1007.3
20260509203516 31 338 3.2 4.8 0.00 0.18 0.00 79 1007.5
20260509202516 30 23 1.6 4.8 0.00 0.18 0.00 79 1007.4
20260509201516 30 338 3.2 4.8 0.00 0.18 0.00 80 1007.6
20260509200516 30 0.0 1.6 0.00 0.18 0.00 82 1007.8
20260509195516 30 135 1.6 3.2 0.00 0.18 0.00 82 1007.9
20260509194516 30 225 1.6 6.4 0.00 0.18 0.00 81 1008.1
20260509193516 30 158 1.6 3.2 0.00 0.18 0.00 82 1008.1
20260509192516 30 0.0 3.2 0.00 0.18 0.00 84 1008.2
20260509191516 29 0 3.2 8.0 0.00 0.18 0.00 83 1008.4
20260509190516 29 203 1.6 4.8 0.00 0.18 0.00 84 1008.5
20260509185536 29 203 1.6 6.4 0.00 0.18 0.00 85 1008.6
20260509184516 28 0 1.6 3.2 0.00 0.18 0.00 85 1008.6
20260509183516 28 203 1.6 4.8 0.00 0.18 0.00 86 1008.8
20260509182516 28 315 1.6 6.4 0.00 0.18 0.00 86 1009.0
20260509181516 28 203 1.6 8.0 0.00 0.18 0.00 86 1009.1
20260509180516 28 225 1.6 3.2 0.00 0.18 0.00 86 1009.3
20260509175516 28 315 1.6 3.2 0.00 0.18 0.00 87 1009.3
20260509174536 28 203 1.6 4.8 0.00 0.18 0.00 89 1009.4
20260509173536 28 225 1.6 4.8 0.00 0.18 0.00 90 1009.3
20260509172516 27 270 1.6 4.8 0.00 0.18 0.00 90 1009.4
20260509171516 27 45 1.6 4.8 0.00 0.18 0.00 92 1009.3
20260509170516 26 180 1.6 4.8 0.00 0.18 0.00 93 1009.4
20260509165516 26 0.0 1.6 0.00 0.18 0.00 94 1009.4
20260509164516 26 0.0 3.2 0.00 0.18 0.00 94 1009.4
20260509163516 26 0.0 3.2 0.00 0.18 0.00 95 1009.5
20260509162556 26 0.0 1.6 0.00 0.18 0.00 96 1009.5
20260509161516 26 0.0 4.8 0.00 0.18 0.00 96 1009.7
20260509160516 26 293 1.6 4.8 0.00 0.18 0.00 96 1009.7
20260509155556 25 0.0 3.2 0.00 0.18 0.00 98 1009.8
20260509154516 25 0.0 3.2 0.00 0.18 0.00 98 1009.8
20260509153536 25 0.0 3.2 0.00 0.18 0.00 99 1009.8
20260509152536 25 0.0 3.2 0.00 0.18 0.00 99 1009.9
20260509151516 25 0.0 3.2 0.00 0.18 0.00 100 1010.0
20260509150516 24 0.0 3.2 0.00 0.18 0.00 100 1009.7
20260509145516 24 0.0 0.0 0.00 0.18 0.00 100 1009.8
20260509144516 24 0.0 0.0 0.00 0.18 0.00 100 1009.8
20260509143516 24 0.0 0.0 0.00 0.18 0.00 100 1009.6
20260509142516 24 0.0 0.0 0.00 0.18 0.00 100 1009.3
20260509141516 24 0.0 1.6 0.00 0.18 0.00 100 1009.1
20260509140516 24 0.0 3.2 0.00 0.18 0.00 100 1009.2
20260509135516 23 0.0 0.0 0.00 0.18 0.00 100 1009.4
20260509134516 24 0.0 0.0 0.00 0.18 0.00 100 1009.5
20260509133515 23 0.0 1.6 0.00 0.18 0.00 100 1009.7
20260509132516 23 0.0 4.8 0.00 0.18 0.00 100 1009.8
20260509131516 23 0.0 0.0 0.00 0.18 0.00 100 1009.7
20260509130515 23 0.0 1.6 0.00 0.18 0.00 100 1009.6
20260509125516 23 0.0 0.0 0.00 0.18 0.00 100 1009.7
20260509124516 23 0.0 0.0 0.00 0.18 0.00 100 1009.7
20260509123515 23 0.0 0.0 0.00 0.18 0.00 100 1009.8
20260509122515 23 0.0 0.0 0.00 0.18 0.00 100 1009.7
20260509121556 23 0.0 0.0 0.00 0.18 0.00 100 1009.6
20260509120515 23 0.0 0.0 0.00 0.18 0.00 100 1009.5
20260509115516 23 0.0 0.0 0.00 0.18 0.00 100 1009.3
20260509114516 23 0.0 0.0 0.00 0.18 0.00 100 1009.1
20260509113516 23 0.0 0.0 0.00 0.18 0.00 100 1008.8
20260509112515 23 0.0 0.0 0.00 0.18 0.00 100 1008.8
20260509111515 23 0.0 0.0 0.00 0.18 0.00 100 1008.9
20260509110515 23 0.0 0.0 0.00 0.18 0.00 100 1008.9
20260509105516 23 0.0 3.2 0.00 0.18 0.00 100 1009.2
20260509104515 23 0.0 0.0 0.00 0.18 0.00 100 1009.3
20260509103516 23 0.0 1.6 0.00 0.18 0.00 99 1009.5
20260509102535 23 0.0 1.6 0.00 0.18 0.00 99 1009.4
20260509101515 23 0.0 0.0 0.00 0.18 0.00 99 1008.7
20260509100515 23 0.0 1.6 0.00 0.18 0.00 99 1008.5
20260509095516 23 0.0 0.0 0.00 0.18 0.00 99 1008.6
20260509094516 23 0.0 0.0 0.00 0.18 0.00 99 1008.8
20260509093515 23 0.0 0.0 0.00 0.18 0.00 99 1008.8
20260509092515 23 0.0 1.6 0.00 0.18 0.00 99 1008.8
20260509091515 23 0.0 0.0 0.00 0.18 0.00 99 1008.8
20260509090515 23 0.0 1.6 0.00 0.18 0.00 99 1008.9
20260509085515 23 0.0 0.0 0.00 0.18 0.00 99 1008.8
20260509084515 23 0.0 1.6 0.00 0.18 0.00 99 1008.9
20260509083516 23 0.0 1.6 0.00 0.18 0.00 99 1008.9
20260509082515 23 0.0 0.0 0.00 0.18 0.00 99 1008.8
20260509081515 23 0.0 0.0 0.00 0.18 0.00 99 1008.8
20260509080516 22 0.0 0.0 0.00 0.18 0.00 99 1008.8
20260509075517 22 0.0 1.6 0.00 0.18 0.00 99 1008.9
20260509074517 22 0.0 1.6 0.00 0.18 0.00 99 1009.1
20260509073517 22 0.0 0.0 0.00 0.18 0.00 99 1009.3
20260509072517 22 0.0 0.0 0.00 0.18 0.00 99 1009.0
20260509071537 22 0.0 0.0 0.00 0.18 0.00 99 1009.1
20260509070517 22 0.0 0.0 0.00 0.18 0.00 99 1009.2
20260509065517 22 0.0 1.6 0.00 0.18 0.00 99 1009.2
20260509064517 22 0.0 0.0 0.00 0.18 0.00 99 1009.2
20260509063517 22 0.0 1.6 0.00 0.18 0.00 99 1009.4
20260509062517 22 0.0 3.2 0.00 0.18 0.00 99 1009.2
20260509061517 22 203 1.6 4.8 0.00 0.18 0.00 99 1009.2
20260509060537 22 0.0 3.2 0.00 0.18 0.00 99 1009.4
20260509055517 22 203 1.6 3.2 0.00 0.18 0.00 99 1009.6
20260509054537 22 135 1.6 4.8 0.00 0.18 0.00 99 1009.7
20260509053517 22 0.0 1.6 0.00 0.18 0.00 99 1009.8
20260509052517 22 90 1.6 4.8 0.00 0.18 0.00 99 1009.8
20260509051557 22 180 1.6 4.8 0.00 0.18 0.00 99 1009.8
20260509050517 22 203 1.6 4.8 0.00 0.18 0.00 99 1009.8
20260509045516 22 180 1.6 3.2 0.00 0.18 0.18 99 1009.8
20260509044517 22 0.0 1.6 0.00 0.18 0.18 99 1009.6
20260509043516 22 0.0 0.0 0.00 0.18 0.18 99 1009.6
20260509042537 22 0.0 1.6 0.00 0.18 0.18 99 1009.7
20260509041516 22 203 1.6 3.2 0.00 0.18 0.18 99 1009.7
20260509040516 22 0.0 3.2 0.00 0.18 0.18 98 1009.4
20260509035517 22 0.0 3.2 0.00 0.18 0.18 98 1009.6
20260509034517 22 203 1.6 3.2 0.00 0.18 0.18 98 1009.6
20260509033537 22 0.0 3.2 0.00 0.18 0.18 98 1009.4
20260509032516 22 203 1.6 8.0 0.00 0.18 0.18 98 1009.4
20260509031516 22 180 1.6 6.4 0.00 0.18 0.18 98 1009.2
20260509030517 22 0.0 3.2 0.00 0.18 0.18 98 1009.1
20260509025517 22 180 1.6 6.4 0.03 0.18 0.18 98 1009.2
20260509024517 22 203 1.6 4.8 0.03 0.18 0.18 98 1008.9
20260509023516 22 158 1.6 4.8 0.03 0.18 0.18 98 1009.0
20260509022517 22 203 1.6 6.4 0.03 0.18 0.18 98 1008.9
20260509021517 22 180 1.6 6.4 0.03 0.18 0.18 98 1008.9
20260509020517 22 0.0 3.2 0.03 0.18 0.18 98 1008.6
20260509015516 22 158 1.6 6.4 0.00 0.15 0.15 98 1008.8
20260509014517 22 0.0 1.6 0.00 0.15 0.15 98 1008.8
20260509013516 22 0.0 3.2 0.00 0.15 0.15 97 1008.6
20260509012517 22 0.0 0.0 0.00 0.15 0.15 97 1008.6
20260509011517 22 0.0 1.6 0.00 0.15 0.15 97 1008.7
20260509010617 22 0.0 3.2 0.00 0.15 0.15 97 1008.5
20260509005516 22 0.0 1.6 0.00 0.15 0.15 97 1008.5
20260509004517 22 0.0 3.2 0.00 0.15 0.15 97 1008.6
20260509003516 22 0.0 3.2 0.03 0.15 0.15 96 1008.8
20260509002516 22 0.0 1.6 0.13 0.15 0.15 96 1008.7
20260509001516 22 0.0 1.6 0.15 0.15 0.15 96 1008.5
20260509000516 23 0.0 1.6 0.15 0.15 0.15 95 1008.8
20260508235516 23 0.0 3.2 0.15 0.15 0.15 95 1008.8
20260508234516 23 0.0 0.0 0.15 0.15 0.15 95 1008.8
20260508233536 23 0.0 1.6 0.13 0.13 0.13 94 1009.1
20260508232516 23 0.0 1.6 0.03 0.03 0.03 93 1008.9
20260508231516 23 45 1.6 3.2 0.00 0.00 0.00 93 1008.9
20260508230516 23 113 1.6 3.2 0.00 0.00 0.00 93 1008.7
20260508225516 23 0.0 3.2 0.00 0.00 0.00 92 1008.7
20260508224516 24 0.0 3.2 0.00 0.00 0.00 92 1008.8